Regional Weather Roundup
Issued by NWS Burlington, VT

Home | Current Version | Previous Version | Text Only | Print | Product List | Glossary On
Versions: 1 2 3 4 5 6 7 8 9 10 11 12 13 14 15 16 17 18 19 20 21 22 23 24 25 26 27 28 29 30 31 32 33 34 35 36 37 38 39 40 41 42 43 44 45 46 47 48 49 50
179
ASUS41 KBTV 232110
RWRBTV
VERMONT REGIONAL WEATHER ROUNDUP
NATIONAL WEATHER SERVICE BURLINGTON VT
500 PM EDT FRI JUN 23 2017

NOTE: "FAIR" INDICATES FEW OR NO CLOUDS BELOW 12,000 FEET WITH NO
SIGNIFICANT WEATHER AND/OR OBSTRUCTIONS TO VISIBILITY.

* THESE REPORTS ARE NOT UNDER NWS QUALITY CONTROL AND/OR DO NOT
  REPORT WEATHER SUCH AS PRECIPITATION AND FOG.

VTZ001>019-232200-
_____VERMONT_____


CITY           SKY/WX    TMP DP  RH WIND       PRES   REMARKS
BURLINGTON     CLOUDY    78  70  76 S10       29.53F
MONTPELIER     CLOUDY    75  71  87 CALM      29.63F
MORRISVILLE    PTSUNNY   73  69  87 SW6       29.58F
ST. JOHNSBURY*   N/A     80  71  74 MISG      29.55F
LYNDONVILLE*   LGT RAIN  75  69  81 S6        29.62F
MIDDLEBURY*    HVY RAIN  73  71  92 CALM      29.58R
RUTLAND*       CLOUDY    82  66  58 S5        29.58F
SPRINGFIELD    PTSUNNY   84  67  56 S9        29.58F
HIGHGATE*      FAIR      78  72  82 CALM      29.53F
NEWPORT*       PTSUNNY   74  71  89 S9        29.59F
BENNINGTON     CLOUDY    80  67  64 S8        29.61F
SUTTON*          N/A     73 N/A N/A MISG        N/A

_____LAKE CHAMPLAIN_____


CITY           SKY/WX    TMP DP  RH WIND       PRES   REMARKS
BURTON ISLAND*   N/A     73  70  88 S1          N/A
COLCHESTER RF*   N/A     72  70  94 S14         N/A
DIAMOND ISL*     N/A     75  70  83 S7          N/A

$$

NYZ007-026>031-035-052-083-087-232200-
_____NORTHERN NEW YORK_____


CITY           SKY/WX    TMP DP  RH WIND       PRES   REMARKS
PLATTSBURGH    CLOUDY    77  70  79 SE7       29.52F
SARANAC LAKE   LGT RAIN  68  68 100 SW7       29.60R FOG
MASSENA        LGT RAIN  76  71  85 SW3       29.51F
OGDENSBURG*    PTSUNNY   74  70  88 S6        29.50F
POTSDAM*       RAIN      73  73 100 W5        29.52S
WATERTOWN      CLOUDY    74  72  93 SW9       29.53S
FT DRUM        DRIZZLE   72  70  94 SW7       29.53F
ALBANY         CLOUDY    83  69  62 S13       29.57F
GLENS FALLS    PTSUNNY   77  71  82 S10       29.56F

$$
NHZ002-005-011-232200-
_____NEW HAMPSHIRE_____


CITY           SKY/WX    TMP DP  RH WIND       PRES   REMARKS
LEBANON        PTSUNNY   85  68  56 S13G22    29.56F
KEENE          MOSUNNY   84  66  54 S13       29.60F
MT WASHINGTON  FOG       55  55 100 SW29G41     N/A  VSB 0
PLYMOUTH       FAIR      80  68  66 E7        29.59F
WHITEFIELD     PTSUNNY   82  66  58 SW6       29.60F

$$

_____REGIONAL QUEBEC LOCATIONS_____


CITY           SKY/WX    TMP DP  RH WIND       PRES   REMARKS
MONTREAL       PTSUNNY   75  68  78 SW8       29.50F
QUEBEC CITY    CLOUDY    64  63  94 NE7       29.55F FOG
SHERBROOKE     LGT RAIN  73  70  88 NW3       29.57F

_____REGIONAL ONTARIO LOCATIONS_____


CITY           SKY/WX    TMP DP  RH WIND       PRES   REMARKS
OTTAWA         CLOUDY    73  68  83 SW12      29.50S

______KEY______
VSB  - VISIBILITY IN MILES
WCI  - WIND CHILL INDEX
HX   - HEAT INDEX
$$
NNNN




USA.gov is the U.S. government's official web portal to all federal, state and local government web resources and services.